Погода в Удтсхорне

ЮАР     33°35′20″S   22°12′11″E
темп.,
°C
ветер,
м/с
пор.,
м/с
влажн.,
%
обл.,
%
осадки,
мм/ч
давл.,
гПа
погр.,
м
19 апреля, пн
пн1923:00+20сз01285 0.0 101711
02:00+18юз222620 0.0 101911
05:00+15юз127470 0.0 102231
08:00+17з017955 0.1 1025164
11:00+19ю446784 0.3 1025861
14:00+15ююв5787100 1.1 1025641
17:00+15юв5683100 0.1 1025556
20:00+14юв349082 0.2 1027275
20 апреля, вт
вт2023:00+14ююз119184 0.4 1026100
02:00+14всв128868 1.3 1025103
05:00+13св229113 0.6 102324
08:00+14ссв237981 0.6 1023190
11:00+20св23555 0.0 1021785
14:00+26св243780 0.0 10171276
17:00+26ю433647 0.0 1015643
20:00+18юз01675 0.0 101711
21 апреля, ср
ср2123:00+18юз016812 0.0 101711
02:00+17с116864 0.0 101611
05:00+17ссз016795 0.0 101511
08:00+19юз0163100 0.0 101717
11:00+24ююз214415 0.0 1017686
14:00+27ю32351 0.0 10141206
17:00+24ю654815 0.0 1015696
20:00+18ююз127850 0.1 101840
22 апреля, чт
чт2223:00+16св00905 0.0 101812
02:00+15юз00920 0.1 101811
05:00+15вюв11910 0.1 101811
08:00+18всв11760 0.1 101964
11:00+24в12460 0.0 1018950
14:00+28в14320 0.0 10151815
17:00+29юв23270 0.0 10131173
20:00+22св12510 0.0 101513
23 апреля, пт
пт2323:00+20ссв33590 0.0 101636
02:00+19ссв33670 0.0 101633
05:00+18ссв33660 0.0 101523
08:00+20ссв33560 0.0 101652
11:00+28ссз13260 0.0 1015821
14:00+32з24160 0.0 10122435
17:00+28ююв54310 0.0 1012514
20:00+17ююз22730 0.0 101549